Reflectivity
-20 -20 -20 -20 -20 -18 -20 -20 -20 -20 -20 -20 -20 -20 -20 -20 -20 -20 -20 -20 -20 -20 -20 -20 -20 -20 -20 -20 -20 -20 -20 -20 -20 -20 -20 -20 -20 -20 -20 -20 -20 -20 -20 -20 -20
-20 -20 -16 -20 -20 7 -20 -20 -20 -20 -20 -20 -20 -20 -20 -20 -20 -20 -20 -20 -20 -20 -20 -20 -20 -20 -20 -20 -20 -20 -20 -20 -20 -20 -20 -20 -20 -20 -20 -20 -20 -20 -20 -20 -20
-20 -16 -6 -20 -20 -20 -7 6 -7 -20 -20 -20 -20 -20 -20 -20 -20 -20 -20 -20 -20 -20 -20 -20 -20 -20 -20 -20 -20 -20 -20 -20 -20 -20 -20 -20 -20 -20 -20 -20 -20 -20 -20 -20 -20
-20 -20 -20 -1 -5 -20 -20 -11 -1 -7 -20 -20 -20 -20 -20 -20 -11 -20 -20 -20 -20 -20 -20 -20 -20 -20 -20 -20 -20 -20 -20 -20 -20 -20 -20 -20 -20 -20 -20 -20 -20 -20 -20 -20 -20
-20 -20 -20 -20 -3 5 11 -6 -20 -12 -17 -20 -20 -20 -20 -20 -20 -20 -20 -20 -20 -20 -20 -20 -20 -20 -20 -20 -20 -20 -20 -20 -20 -20 -20 -20 -20 -20 -20 -20 -20 -20 -20 -20 -20
-20 -20 -20 -20 -20 11 10 10 6 -14 -20 -20 -20 -10 -20 -20 -20 -20 -20 -20 -20 -20 -20 -20 -20 -20 -20 -20 -20 -20 -20 -20 -20 -20 -20 -20 -20 -20 -20 -20 -20 -20 -20 -20 -20
-20 -20 -15 -20 -19 -9 9 -20 9 -19 -18 -20 9 -20 -20 -20 -20 -20 -20 -20 -20 -20 -20 -20 -20 -20 -20 -20 -20 -20 -20 -20 -20 -20 -20 -20 -20 -20 -20 -20 -20 -20 -20 -20 -20
-20 3 7 -20 -20 -20 15 -20 20 -7 4 10 7 -20 -20 -20 -20 -20 -20 -20 -20 -20 -20 -20 -20 -20 -20 -20 -20 -20 -20 -20 -20 -20 -20 -20 -20 -20 -20 -20 -20 -20 -20 -20 -20
-18 5 11 -4 -17 -20 -1 11 19 -7 15 8 -20 -20 -20 -20 -20 -20 -20 -20 -20 -20 -20 -20 -20 -20 -20 -20 -20 -20 -20 -20 -20 -20 -20 -20 -20 -20 -20 -20 -20 -20 -20 -20 -20
-20 3 -10 -20 -17 -3 9 17 23 11 3 -20 -20 -20 -20 -20 -20 -20 -20 -20 -20 -20 -20 -20 -20 -20 -20 -20 -20 -20 -19 -20 -20 4 -20 -20 -20 -20 -20 -20 -20 -20 -20 -20 -20
-20 -6 -20 -20 -17 14 19 10 10 -18 -9 -20 -20 -20 -20 -20 -20 -20 -20 -20 -20 -20 -20 -20 -20 -20 -20 -20 -20 -20 5 3 -20 -15 1 -20 -20 -20 -20 -20 -20 -20 -20 -20 -20
-20 -20 -20 -20 1 -8 -11 1 -20 -17 -20 -20 -20 -20 -20 -20 -20 -20 -20 -20 -20 -20 -20 -17 -6 -20 -20 -15 13 11 -9 -20 -4 18 0 -20 -20 -20 -20 -20 -20 -20 -20 -20 -20
-20 -20 -20 5 8 1 4 8 -16 -20 -12 -20 -20 -20 -20 -20 -20 -20 -20 -20 -20 -20 -20 -20 -20 -20 -20 6 3 -10 10 3 -8 21 10 -14 -20 -20 -20 -20 -20 -20 -20 -20 -20
-20 -20 -20 11 19 10 16 7 -15 -17 17 -20 -20 -20 -20 -20 -20 -20 -20 -20 -20 -20 -20 -1 -20 -20 -20 -19 9 28 13 18 15 5 5 16 -20 7 -20 -20 -20 -20 -20 -20 -20
-20 -20 0 -16 -16 14 7 -13 -20 -3 15 -20 -20 -20 -20 -20 -20 -20 -20 -20 -20 -20 -15 -20 -19 -20 -20 -20 6 24 11 24 28 8 -3 -10 3 -20 -9 -20 -20 -20 -20 -20 -20
-20 -19 14 21 1 -17 -20 -20 1 21 -7 -20 -20 -20 -20 -20 -20 -20 -20 -20 -20 2 15 0 17 -18 -20 -10 3 19 19 11 18 11 14 3 9 1 13 -19 -20 -19 -19 -20 -20
22 18 16 -17 -20 -20 -20 -12 20 11 -20 -20 -20 -20 -20 -20 -20 -20 -20 1 -12 11 4 4 1 -20 -3 10 0 25 29 15 15 19 9 -4 15 11 20 13 9 12 -20 -20 -20
20 20 15 -12 -20 -18 8 17 10 -19 -20 -20 -20 -20 -20 -20 -20 -20 -20 6 -10 4 14 18 19 1 -18 -8 15 -7 13 10 9 10 11 18 9 18 11 0 10 -17 -20 -20 -20
19 7 0 16 18 21 21 25 16 7 4 7 -16 -13 -20 -19 -20 -6 -20 9 -20 -20 16 6 -10 -20 -20 -18 12 20 11 2 18 16 8 6 17 5 6 5 12 2 -20 -20 -20
5 17 26 18 22 30 33 21 5 -20 -20 -19 -19 -6 -3 -2 -16 -20 -16 -7 -11 26 -11 1 16 -13 -0 -20 -20 -6 12 11 13 15 10 9 16 23 6 9 -14 -20 -20 -20 -20
24 22 16 17 26 31 12 1 -20 -20 -20 -20 -20 6 -15 5 -1 -2 12 6 6 -20 -20 -17 5 -3 -18 -20 -19 -5 26 4 25 -3 13 10 19 26 21 20 5 -20 -20 -20 -20
16 19 10 17 29 21 -1 -19 -20 -20 -20 -20 -20 -20 -5 1 -8 1 2 -1 -20 -20 -20 -20 3 19 -16 -20 -9 -4 -12 7 6 9 27 -2 13 28 15 -1 6 -20 -20 -20 -20
20 17 24 21 12 7 -10 -5 -20 -20 -20 -15 5 -18 -20 6 -0 -12 -3 -16 -20 -20 -5 -17 -13 9 -15 -16 -20 -20 -20 -20 -20 -20 -20 6 10 21 -5 -20 -20 -20 -20 -20 -20
22 15 32 33 5 10 -0 5 -1 -20 -20 -6 7 -15 1 8 -20 15 5 -20 -20 -20 -20 -20 -20 -6 11 14 -1 -20 -20 -20 -20 -20 -20 -20 -20 14 -6 -20 -20 -20 -20 -20 -20
21 13 -14 10 -0 6 12 -17 5 6 -20 -20 14 13 12 11 4 4 -18 -20 -14 -8 -5 -8 -12 -20 -20 -20 -20 -20 -20 -20 -20 -20 -20 -20 -18 -20 -20 -20 -1 -20 -20 -20 -20
18 7 1 5 -0 7 14 14 7 8 -1 9 8 15 18 13 2 -19 -20 -20 -20 -9 -1 -20 -20 -16 -20 -20 -20 -20 -20 -20 -20 -20 -20 -20 -20 -20 -20 -11 -20 -20 -20 -20 -20
3 1 4 3 7 14 15 -2 11 10 -17 7 11 6 14 -8 -20 -4 -15 -20 -20 -20 -20 -20 -20 -20 -20 -20 -20 -20 -20 -20 -20 -20 -20 -15 -7 -20 -15 -13 -15 -3 -12 -20 -20
Wind_Speed
13 13 14 13 13 13 12 10 9 7 8 8 11 13 16 17 21 20 19 3 5 6 4 9 10 13 15 16 16 7 11 15 21 21 18 8 6 14 3 10 8 10 13 9 11
14 14 15 15 13 13 12 11 9 8 7 7 8 12 16 17 17 22 3 10 5 6 9 10 10 10 13 14 10 17 15 22 20 14 16 12 12 13 15 12 13 15 13 12 8
13 15 16 16 15 14 13 12 10 9 7 5 7 10 14 19 15 4 7 7 3 9 13 10 10 11 18 15 19 16 22 21 18 12 13 19 19 16 16 18 15 16 13 10 11
14 14 16 18 17 16 14 14 12 11 8 4 6 9 13 11 9 7 7 8 8 10 11 11 11 15 15 19 19 25 23 21 21 18 15 19 19 20 19 17 16 15 13 13 12
15 16 15 17 19 15 14 15 13 11 8 3 4 7 9 11 15 4 11 9 11 11 13 13 14 15 22 16 18 24 22 21 20 17 21 18 21 21 21 18 17 13 13 11 12
16 17 17 16 17 17 14 15 14 12 9 6 1 6 9 19 9 9 7 12 15 15 16 16 16 17 22 24 24 22 18 19 23 19 19 21 22 21 17 15 15 15 12 12 10
18 18 18 18 15 18 15 17 16 13 11 6 1 8 14 21 16 9 15 18 18 20 19 18 16 18 13 20 22 23 30 25 24 21 22 15 23 25 22 17 16 15 13 12 9
19 19 17 17 17 15 16 18 15 14 9 4 3 8 12 10 15 20 20 17 16 16 18 16 15 18 21 21 29 24 23 24 19 26 25 19 23 19 11 16 17 13 12 8 10
20 19 17 16 15 13 16 16 15 12 5 4 7 6 17 5 11 15 18 19 17 16 15 14 16 18 16 19 21 20 22 25 22 19 12 23 17 24 12 9 12 14 9 11 5
22 19 16 16 14 13 20 16 12 8 3 6 7 5 11 14 7 4 4 15 15 13 16 14 10 17 20 17 20 20 26 26 25 19 17 20 21 19 11 16 14 13 13 11 6
24 18 16 16 13 24 21 10 5 3 7 13 9 15 4 4 7 9 9 10 15 14 19 17 17 24 25 27 28 27 25 30 25 17 13 15 20 17 16 18 18 14 14 9 6
20 14 15 15 23 29 17 6 11 7 9 25 25 30 26 20 24 17 8 11 17 20 21 17 20 29 23 22 19 28 28 28 24 23 11 18 22 20 20 19 16 15 11 8 7
16 14 14 16 29 16 11 11 4 8 5 14 23 25 22 21 28 29 20 21 23 21 24 26 24 12 21 16 18 24 27 23 22 26 22 19 24 22 18 18 16 7 11 9 5
13 11 15 27 15 6 7 6 8 4 2 14 9 7 12 16 16 20 26 26 23 27 21 19 21 22 11 17 21 21 24 21 25 21 18 22 17 19 23 10 11 13 12 11 6
9 16 30 28 12 8 11 11 7 4 7 8 6 5 7 19 7 6 8 23 27 21 6 14 15 21 28 27 11 18 19 24 27 23 22 19 11 12 18 19 17 16 12 9 5
19 28 26 4 4 13 18 12 3 4 11 9 6 9 13 18 15 4 3 15 3 1 6 16 3 10 25 16 15 12 14 18 20 18 18 21 19 13 13 17 20 17 12 6 4
23 21 6 4 8 18 15 5 3 9 1 10 10 13 16 14 15 15 10 17 11 7 13 13 17 6 9 15 21 18 8 4 6 9 12 15 13 19 5 7 18 17 13 5 5
15 10 6 3 13 14 6 3 10 10 21 1 5 12 18 15 17 14 17 17 21 16 3 10 8 20 21 20 12 27 19 7 6 5 8 12 7 9 10 18 14 13 9 5 8
9 4 3 5 10 6 5 7 9 7 6 6 8 14 17 16 14 17 22 20 18 18 10 5 10 14 12 17 21 10 24 24 15 16 11 7 11 10 10 9 10 9 5 7 8
4 3 3 5 5 3 3 6 9 6 4 7 10 5 13 15 17 19 17 13 21 20 13 5 3 7 11 9 15 17 14 17 7 7 10 11 16 8 14 11 10 9 7 9 10
4 4 5 5 2 1 6 10 9 8 6 7 9 9 13 9 15 13 7 4 8 10 9 3 4 4 3 10 5 12 10 6 6 9 6 11 3 6 12 11 10 7 8 9 10
5 4 7 6 4 3 9 5 3 9 9 8 7 7 8 9 9 6 9 3 3 6 16 9 6 7 12 4 4 10 10 4 3 6 8 9 1 7 11 10 3 5 5 7 8
4 4 3 2 7 7 10 12 9 9 11 8 8 8 6 12 7 2 6 4 2 5 9 9 8 8 8 8 7 8 6 7 6 5 11 10 2 8 6 5 7 3 7 7 9
5 5 3 3 4 10 18 12 14 13 8 7 3 5 9 10 9 8 7 4 3 3 3 3 6 8 6 3 3 6 9 8 6 5 10 11 9 6 5 11 13 14 8 9 10
4 6 11 8 9 13 13 10 16 10 13 12 6 11 10 6 9 9 10 12 6 4 4 6 7 6 2 2 1 2 5 7 8 8 6 10 11 10 12 13 11 10 9 9 9
3 4 7 5 19 20 13 12 18 16 14 12 8 8 12 5 4 10 9 10 7 6 5 2 3 5 8 4 6 8 9 11 11 11 13 13 11 15 13 13 9 7 8 7 9
6 5 7 7 16 16 14 16 16 11 4 4 7 8 11 6 3 3 3 3 3 9 7 5 4 5 7 2 4 9 6 8 10 10 7 9 10 14 14 12 12 10 8 8 9
Wind_Direction
248 248 246 235 227 228 226 225 237 248 274 302 317 322 316 314 305 280 279 351 56 143 258 250 232 235 237 236 235 235 246 248 255 264 274 307 279 273 295 295 244 231 249 292 316
259 250 251 249 235 223 219 215 213 235 262 293 313 316 313 312 298 286 87 122 113 190 222 225 233 225 232 237 216 232 232 245 265 301 292 282 259 251 275 236 251 252 244 263 261
294 279 261 252 240 227 216 207 206 213 235 271 300 311 311 308 289 48 76 103 172 211 250 237 262 236 243 238 228 239 247 271 275 272 269 279 271 273 267 263 259 267 273 272 268
285 285 288 266 248 232 216 202 198 210 216 234 295 314 311 287 283 82 145 163 180 219 247 236 243 236 249 249 238 251 257 270 276 279 255 253 269 265 265 270 279 280 270 269 265
284 279 275 281 264 245 216 197 193 200 196 211 289 316 302 243 254 241 130 173 196 214 229 234 245 252 259 270 263 257 256 264 271 251 265 261 259 264 263 266 265 267 257 260 257
280 277 275 270 276 251 213 189 187 181 185 191 232 300 263 261 274 264 236 192 224 219 236 247 251 260 275 278 276 274 285 268 265 255 254 256 260 254 247 252 251 250 250 241 243
281 274 268 265 256 266 201 188 175 175 173 172 234 268 257 251 287 253 228 232 228 235 237 242 255 259 270 270 257 275 269 271 250 256 253 256 254 248 252 236 252 239 237 237 233
281 280 270 261 247 249 193 182 166 165 159 158 261 270 265 279 250 248 245 232 249 252 254 261 260 257 257 265 271 268 266 262 257 242 236 233 257 258 220 219 230 228 212 212 235
281 271 263 260 231 232 173 164 155 146 140 185 243 243 275 89 236 253 253 245 248 245 253 263 252 252 244 247 260 250 258 261 256 243 245 214 251 236 176 212 230 228 233 230 205
275 267 253 248 213 182 146 138 128 125 202 220 254 255 235 254 264 255 212 217 234 247 233 234 238 242 228 228 236 249 245 246 248 246 203 229 228 265 221 206 214 231 235 232 210
277 260 246 226 184 141 121 119 124 197 213 217 206 235 147 230 170 243 200 221 213 224 226 214 225 234 243 235 243 255 267 275 283 243 226 239 254 238 213 233 237 224 228 219 199
272 247 231 189 156 154 163 196 207 8 257 220 245 258 253 259 275 252 202 225 215 237 227 228 238 246 257 269 277 275 259 250 265 286 248 252 252 254 240 235 235 230 191 181 167
253 240 197 172 156 169 174 189 80 36 304 276 244 246 247 238 250 257 246 224 246 238 247 235 234 268 247 259 270 270 267 258 254 282 278 262 261 247 237 224 226 207 149 135 152
244 197 169 146 156 149 149 121 116 63 282 271 219 257 213 224 267 255 236 231 233 249 253 257 256 232 231 223 219 250 262 268 277 256 248 238 252 256 209 181 175 154 159 150 124
188 149 141 154 129 167 143 132 105 72 251 248 201 76 154 183 2 167 241 217 228 235 221 226 236 239 230 231 223 255 251 262 239 260 263 245 260 265 164 176 183 158 149 115 89
149 146 140 114 101 135 136 126 111 148 231 203 157 207 200 208 235 276 235 209 313 310 274 263 285 297 245 227 230 271 305 242 251 245 238 241 254 254 176 186 173 143 119 101 58
121 134 143 153 151 140 139 126 142 214 115 213 194 207 223 211 223 231 209 187 188 191 224 225 220 244 241 216 206 225 243 223 221 216 247 228 231 235 164 146 152 132 113 100 44
98 94 36 108 138 145 119 121 223 235 213 29 196 214 230 223 232 222 213 210 214 228 281 221 196 195 194 214 202 203 197 226 215 209 243 276 251 92 43 75 81 82 98 83 42
84 52 81 136 137 143 121 222 193 200 285 215 241 251 248 231 247 213 223 205 204 214 217 237 230 184 187 214 222 211 213 225 268 288 271 175 129 108 116 116 118 102 86 59 36
117 87 113 144 158 144 210 239 213 225 212 203 233 253 265 228 211 232 212 202 209 202 215 303 243 230 164 229 221 220 241 225 203 256 236 208 190 161 162 158 128 99 67 35 15
176 146 146 135 129 211 222 220 231 184 201 225 248 206 249 285 251 244 237 120 174 187 216 260 262 201 173 212 254 218 197 245 236 297 294 263 85 81 150 115 113 96 49 24 6
202 188 152 160 186 209 225 213 308 212 208 228 273 248 246 228 252 226 227 84 42 226 194 191 277 213 210 171 217 277 288 256 269 211 238 282 18 122 111 105 71 51 40 18 7
171 118 145 218 212 198 233 225 216 211 216 211 228 223 215 232 239 211 218 70 120 247 172 170 213 222 192 197 205 240 239 293 306 280 278 288 17 99 133 191 174 343 61 14 15
208 151 148 217 272 233 205 218 212 218 231 217 206 192 223 209 236 190 150 171 172 146 12 297 259 254 277 6 58 187 205 218 205 269 278 273 283 148 336 353 357 31 40 24 24
235 225 171 174 207 232 208 217 213 206 213 204 189 215 200 201 220 192 154 144 162 137 199 221 228 251 333 36 9 273 221 214 241 249 265 290 303 336 18 357 29 12 17 17 20
237 214 189 214 198 210 210 220 212 196 189 197 217 199 192 204 220 175 171 176 163 185 207 198 221 240 226 239 260 266 254 251 261 269 267 278 283 37 355 7 60 47 35 30 24
230 254 235 221 189 197 204 222 208 193 146 225 184 218 168 202 114 106 120 107 160 187 188 194 182 205 234 187 264 253 281 290 279 251 291 278 2 10 27 50 39 43 40 31 31